Fort Wainwright, AK

8:54 PM AKDT on September 25, 2016 (GMT -0800)
Ladd Army Air Field

Weather History for PAFB - October, 2012

Change the Weather History Date:

Sunday, October 7, 2012

  Actual Average Record
Temperature  
Mean Temperature 40 °F -  
Max Temperature 44 °F 36 °F 57 °F (2003)
Min Temperature 35 °F 23 °F 12 °F (2014)
Degree Days  
Heating Degree Days 26    
Moisture  
Dew Point 37 °F    
Average Humidity 91    
Maximum Humidity 97    
Minimum Humidity 82    
Precipitation  
Precipitation 0.13 in - - ()
Sea Level Pressure  
Sea Level Pressure 30.27 in    
Wind  
Wind Speed 1 mph (East)    
Max Wind Speed 5 mph    
Max Gust Speed -    
Visibility 10 miles    
Events Rain    
Averages and records for this station are not official NWS values.
T = Trace of Precipitation, MM = Missing Value Source: NWS Daily Summary

Daily Weather History Graph

Daily Weather History Graph

Search for Another Location

Airport or City:

Trip Planner

Search our weather history database for the weather conditions in past years. The results will help you decide how hot, cold, wet, or windy it might be!

Date:

Astronomy

Oct. 07, 2012 Rise Set
Actual Time 8:20 AM AKDT 6:54 PM AKDT
Civil Twilight 7:31 AM AKDT 7:43 PM AKDT
Nautical Twilight 6:34 AM AKDT 8:39 PM AKDT
Astronomical Twilight 5:34 AM AKDT 9:39 PM AKDT
Moon 10:40 PM AKDT (10/7) 4:43 PM AKDT (10/7)
Length of Visible Light 12h 12m
Length of Day
10h 34m
Waning Gibbous, 55% of the Moon is Illuminated
Oct 7
Waning Gibbous
Oct 7
Last Quarter
Oct 15
New
Oct 21
First Quarter
Oct 29
Full

Hourly Weather History & Observations

Time (AKDT) Temp. Windchill Dew Point Humidity Pressure Visibility Wind Dir Wind Speed Gust Speed Precip Events Conditions
12:56 AM 39.0 °F - 37.0 °F 93% 30.30 in 10.0 mi Calm Calm - 0.00 in   Overcast
1:56 AM 39.0 °F 35.7 °F 37.0 °F 93% 30.31 in 10.0 mi SE 4.6 mph - 0.00 in Rain Light Rain
2:56 AM 39.0 °F 36.8 °F 37.0 °F 93% 30.30 in 8.0 mi ENE 3.5 mph - 0.00 in   Overcast
3:56 AM 37.9 °F 35.5 °F 36.0 °F 93% 30.30 in 10.0 mi East 3.5 mph - N/A   Overcast
4:56 AM 37.9 °F 34.4 °F 36.0 °F 93% 30.29 in 10.0 mi East 4.6 mph - N/A   Overcast
5:56 AM 37.9 °F 35.5 °F 36.0 °F 93% 30.28 in 10.0 mi East 3.5 mph - N/A   Mostly Cloudy
6:56 AM 37.0 °F - 35.1 °F 93% 30.28 in 10.0 mi Calm Calm - N/A   Clear
7:19 AM 37.4 °F - 35.6 °F 93% 30.26 in 10.0 mi Calm Calm - N/A   Partly Cloudy
7:56 AM 35.1 °F - 34.0 °F 96% 30.28 in 6.0 mi Calm Calm - N/A   Partly Cloudy
8:56 AM 36.0 °F - 34.0 °F 93% 30.28 in 10.0 mi Calm Calm - N/A   Clear
9:56 AM 37.0 °F - 35.1 °F 93% 30.28 in 10.0 mi Calm Calm - N/A   Partly Cloudy
10:56 AM 37.9 °F - 36.0 °F 93% 30.28 in 10.0 mi Calm Calm - N/A   Overcast
11:56 AM 39.0 °F - 36.0 °F 89% 30.29 in 10.0 mi Calm Calm - N/A   Overcast
12:56 PM 41.0 °F - 37.0 °F 86% 30.28 in 10.0 mi Calm Calm - N/A   Overcast
1:56 PM 43.0 °F 40.3 °F 37.9 °F 82% 30.27 in 10.0 mi ENE 4.6 mph - N/A   Overcast
2:56 PM 44.1 °F - 39.0 °F 82% 30.26 in 10.0 mi Calm Calm - N/A   Overcast
3:56 PM 44.1 °F - 39.0 °F 82% 30.26 in 10.0 mi Calm Calm - N/A   Overcast
4:56 PM 43.0 °F - 39.9 °F 89% 30.25 in 9.0 mi Calm Calm - 0.01 in Rain Light Rain
5:56 PM 43.0 °F - 39.9 °F 89% 30.25 in 9.0 mi Calm Calm - 0.03 in Rain Light Rain
6:56 PM 42.1 °F - 39.9 °F 92% 30.25 in 10.0 mi Calm Calm - 0.02 in Rain Light Rain
7:36 PM 42.8 °F - 39.2 °F 87% 30.22 in 6.2 mi Calm Calm - 0.01 in Rain Light Rain
7:56 PM 42.1 °F - 39.9 °F 92% 30.25 in 10.0 mi Calm Calm - 0.02 in Rain Light Rain
8:56 PM 42.1 °F - 39.0 °F 89% 30.24 in 10.0 mi Calm Calm - 0.02 in Rain Light Rain
9:56 PM 41.0 °F - 39.0 °F 93% 30.23 in 10.0 mi Calm Calm - 0.00 in Rain Light Rain
10:56 PM 39.9 °F - 39.0 °F 97% 30.22 in 8.0 mi Calm Calm - 0.02 in Rain Light Rain
11:56 PM 39.9 °F - 37.9 °F 93% 30.21 in 10.0 mi Calm Calm - 0.01 in Rain Light Rain